Weather History for Hearne, TX

Change the Weather History Date:

Tuesday, November 27, 2012

  Actual Average (KCLL) Record (KCLL)
Temperature  
Mean Temperature 49 °F 56 °F  
Max Temperature 59 °F 67 °F 87 °F (1922)
Min Temperature 39 °F 46 °F 20 °F (1993)
Degree Days  
Heating Degree Days 16 9  
Month to date heating degree days 157  
Since 1 July heating degree days 194  
Cooling Degree Days 0 1  
Month to date cooling degree days 57  
Year to date cooling degree days 3069  
Moisture  
Dew Point 32 °F    
Average Humidity 47    
Maximum Humidity 76    
Minimum Humidity 35    
Precipitation  
Precipitation 0.00 in 0.10 in 2.16 in (1968)
Month to date precipitation 2.89  
Year to date precipitation 36.50  
Sea Level Pressure  
Sea Level Pressure 30.32 in    
Wind  
Wind Speed 11 mph (NNW)    
Max Wind Speed 22 mph    
Max Gust Speed 28 mph    
Visibility 10 miles    
Events      
T = Trace of Precipitation, MM = Missing Value Source: NWS Daily Summary

Daily Weather History Graph

Daily Weather History Graph

Search for Another Location

Airport:

Trip Planner

Search our weather history database for the weather conditions in past years. The results will help you decide how hot, cold, wet, or windy it might be!

Date:

Astronomy

Nov. 27, 2012 Rise Set
Actual Time 7:03 AM CST 5:24 PM CST
Civil Twilight 6:37 AM CST 5:50 PM CST
Nautical Twilight 6:07 AM CST 6:20 PM CST
Astronomical Twilight 5:38 AM CST 6:49 PM CST
Moon 4:56 PM CST (11/27) 6:11 AM CST (11/27)
Length of Visible Light 11h 13m
Length of Day
10h 20m
Waxing Gibbous, 99% of the Moon is Illuminated
Nov 27
Waxing Gibbous
Nov 28
Full
Dec 6
Last Quarter
Dec 13
New
Dec 19
First Quarter

Hourly Weather History & Observations

Time (CST) Temp. Dew Point Humidity Pressure Visibility Wind Dir Wind Speed Gust Speed Precip Events Conditions
12:15 AM 59.0 °F 35.6 °F 42% 30.20 in 10.0 mi NW 17.3 mph 25.3 mph N/A   Scattered Clouds
12:35 AM 59.0 °F 35.6 °F 42% 30.20 in 10.0 mi NW 13.8 mph 19.6 mph N/A   Mostly Cloudy
12:55 AM 59.0 °F 35.6 °F 42% 30.21 in 10.0 mi NW 17.3 mph 25.3 mph N/A   Mostly Cloudy
1:15 AM 59.0 °F 33.8 °F 39% 30.22 in 10.0 mi NW 12.7 mph 20.7 mph N/A   Overcast
1:35 AM 57.2 °F 33.8 °F 41% 30.21 in 10.0 mi NNW 10.4 mph 21.9 mph N/A   Overcast
1:55 AM 57.2 °F 33.8 °F 41% 30.21 in 10.0 mi NW 15.0 mph 18.4 mph N/A   Overcast
2:15 AM 57.2 °F 32.0 °F 38% 30.21 in 10.0 mi NW 18.4 mph 26.5 mph N/A   Overcast
2:35 AM 55.4 °F 32.0 °F 41% 30.22 in 10.0 mi NNW 13.8 mph 21.9 mph N/A   Overcast
2:55 AM 55.4 °F 32.0 °F 41% 30.21 in 10.0 mi NNW 21.9 mph 26.5 mph N/A   Overcast
3:15 AM 55.4 °F 32.0 °F 41% 30.22 in 10.0 mi NNW 18.4 mph 26.5 mph N/A   Overcast
3:35 AM 53.6 °F 32.0 °F 44% 30.22 in 10.0 mi NNW 20.7 mph 26.5 mph N/A   Overcast
3:55 AM 53.6 °F 32.0 °F 44% 30.23 in 10.0 mi NNW 16.1 mph 19.6 mph N/A   Overcast
4:15 AM 53.6 °F 32.0 °F 44% 30.23 in 10.0 mi NNW 18.4 mph 21.9 mph N/A   Overcast
4:35 AM 53.6 °F 32.0 °F 44% 30.24 in 10.0 mi NNW 16.1 mph 26.5 mph N/A   Overcast
4:55 AM 53.6 °F 32.0 °F 44% 30.23 in 10.0 mi NNW 18.4 mph 26.5 mph N/A   Overcast
5:15 AM 53.6 °F 32.0 °F 44% 30.24 in 10.0 mi NNW 17.3 mph 27.6 mph N/A   Overcast
5:35 AM 53.6 °F 32.0 °F 44% 30.26 in 10.0 mi NNW 17.3 mph 25.3 mph N/A   Overcast
6:15 AM 53.6 °F 30.2 °F 41% 30.28 in 10.0 mi NNW 16.1 mph 26.5 mph N/A   Overcast
6:35 AM 53.6 °F 28.4 °F 38% 30.29 in 10.0 mi NNW 18.4 mph 21.9 mph N/A   Overcast
6:55 AM 53.6 °F 28.4 °F 38% 30.31 in 10.0 mi NNW 16.1 mph 23.0 mph N/A   Overcast
7:15 AM 53.6 °F 28.4 °F 38% 30.32 in 10.0 mi NNW 16.1 mph - N/A   Overcast
7:35 AM 53.6 °F 28.4 °F 38% 30.34 in 10.0 mi NNW 13.8 mph 20.7 mph N/A   Overcast
7:55 AM 51.8 °F 28.4 °F 41% 30.35 in 10.0 mi NNW 17.3 mph 24.2 mph N/A   Overcast
8:15 AM 51.8 °F 26.6 °F 38% 30.36 in 10.0 mi NNW 13.8 mph 17.3 mph N/A   Overcast
8:35 AM 51.8 °F 26.6 °F 38% 30.36 in 10.0 mi NNW 12.7 mph 19.6 mph N/A   Overcast
8:55 AM 53.6 °F 28.4 °F 38% 30.37 in 10.0 mi Calm Calm - N/A   Overcast
9:15 AM 53.6 °F 26.6 °F 35% 30.37 in 10.0 mi Calm Calm - N/A   Overcast
9:35 AM 53.6 °F 26.6 °F 35% 30.38 in 10.0 mi NNW 9.2 mph 17.3 mph N/A   Overcast
9:55 AM 53.6 °F 28.4 °F 38% 30.39 in 10.0 mi Calm Calm - N/A   Overcast
10:15 AM 55.4 °F 28.4 °F 36% 30.40 in 10.0 mi NW 13.8 mph - N/A   Overcast
10:35 AM 53.6 °F 30.2 °F 41% 30.40 in 10.0 mi NNW 8.1 mph 16.1 mph N/A   Overcast
10:55 AM 55.4 °F 30.2 °F 38% 30.40 in 10.0 mi Calm Calm - N/A   Overcast
11:15 AM 55.4 °F 30.2 °F 38% 30.40 in 10.0 mi NNW 13.8 mph 17.3 mph N/A   Overcast
11:35 AM 55.4 °F 32.0 °F 41% 30.40 in 10.0 mi North 3.5 mph 19.6 mph N/A   Overcast
11:55 AM 55.4 °F 32.0 °F 41% 30.40 in 10.0 mi North 8.1 mph 16.1 mph N/A   Overcast
12:15 PM 55.4 °F 32.0 °F 41% 30.39 in 10.0 mi NNW 11.5 mph 19.6 mph N/A   Overcast
12:35 PM 55.4 °F 32.0 °F 41% 30.37 in 10.0 mi NNW 12.7 mph - N/A   Overcast
12:55 PM 55.4 °F 33.8 °F 44% 30.37 in 10.0 mi North 10.4 mph - N/A   Overcast
1:15 PM 55.4 °F 33.8 °F 44% 30.36 in 10.0 mi NNW 11.5 mph - N/A   Overcast
1:35 PM 55.4 °F 33.8 °F 44% 30.35 in 10.0 mi Calm Calm - N/A   Overcast
1:55 PM 55.4 °F 33.8 °F 44% 30.34 in 10.0 mi Calm Calm - N/A   Overcast
2:15 PM 57.2 °F 33.8 °F 41% 30.33 in 10.0 mi Calm Calm - N/A   Overcast
2:35 PM 57.2 °F 33.8 °F 41% 30.33 in 10.0 mi Calm Calm - N/A   Overcast
2:55 PM 59.0 °F 33.8 °F 39% 30.33 in 10.0 mi Calm Calm - N/A   Overcast
3:15 PM 59.0 °F 32.0 °F 36% 30.32 in 10.0 mi NNW 3.5 mph - N/A   Overcast
3:35 PM 59.0 °F 32.0 °F 36% 30.33 in 10.0 mi NW 5.8 mph - N/A   Mostly Cloudy
3:55 PM 59.0 °F 33.8 °F 39% 30.33 in 10.0 mi NNW 13.8 mph - N/A   Clear
4:15 PM 59.0 °F 33.8 °F 39% 30.33 in 10.0 mi NNW 5.8 mph - N/A   Clear
4:35 PM 57.2 °F 33.8 °F 41% 30.34 in 10.0 mi Calm Calm - N/A   Clear
4:55 PM 57.2 °F 33.8 °F 41% 30.34 in 10.0 mi Calm Calm - N/A   Clear
5:15 PM 55.4 °F 33.8 °F 44% 30.33 in 10.0 mi Calm Calm - N/A   Clear
6:15 PM 50.0 °F 35.6 °F 58% 30.35 in 10.0 mi Calm Calm - N/A   Clear
6:35 PM 50.0 °F 35.6 °F 58% 30.36 in 10.0 mi Calm Calm - N/A   Clear
6:55 PM 46.4 °F 35.6 °F 66% 30.36 in 10.0 mi Calm Calm - N/A   Clear
7:15 PM 44.6 °F 33.8 °F 66% 30.36 in 10.0 mi Calm Calm - N/A   Clear
7:35 PM 46.4 °F 33.8 °F 62% 30.36 in 10.0 mi Calm Calm - N/A   Clear
7:55 PM 46.4 °F 33.8 °F 62% 30.37 in 10.0 mi Calm Calm - N/A   Clear
8:15 PM 44.6 °F 33.8 °F 66% 30.37 in 10.0 mi Calm Calm - N/A   Clear
8:35 PM 44.6 °F 33.8 °F 66% 30.37 in 10.0 mi Calm Calm - N/A   Clear
8:55 PM 42.8 °F 32.0 °F 66% 30.37 in 10.0 mi Calm Calm - N/A   Clear
9:15 PM 42.8 °F 33.8 °F 70% 30.37 in 10.0 mi Calm Calm - N/A   Clear
9:35 PM 41.0 °F 33.8 °F 76% 30.37 in 10.0 mi Calm Calm - N/A   Clear
9:55 PM 41.0 °F 32.0 °F 70% 30.37 in 7.0 mi Calm Calm - N/A   Clear
10:15 PM 41.0 °F 32.0 °F 70% 30.37 in 7.0 mi Calm Calm - N/A   Clear
10:55 PM 39.2 °F 32.0 °F 75% 30.37 in 7.0 mi Calm Calm - N/A   Clear
11:15 PM 39.2 °F 32.0 °F 75% 30.37 in 7.0 mi Calm Calm - N/A   Clear
11:55 PM 39.2 °F 32.0 °F 75% 30.37 in 7.0 mi Calm Calm - N/A   Clear